Time,TemperatureF,DewpointF,PressureIn,WindDirection,WindDirectionDegrees,WindSpeedMPH,WindSpeedGustMPH,Humidity,HourlyPrecipIn,Conditions,Clouds,dailyrainin,SoftwareType,DateUTC
2013-05-14 00:04:00,75.0,0.0,29.92,SSW,192,7.0,8.0,24,-99.99,,,-99.99,,2013-05-14 07:04:00,
2013-05-14 00:12:00,76.0,0.0,29.92,SW,218,7.0,9.0,22,-99.99,,,-99.99,,2013-05-14 07:12:00,
2013-05-14 00:20:00,78.0,0.0,29.92,WSW,248,8.0,8.0,25,-99.99,,,-99.99,,2013-05-14 07:20:00,
2013-05-14 00:28:00,78.0,0.0,29.92,West,278,5.0,8.0,21,-99.99,,,-99.99,,2013-05-14 07:28:00,
2013-05-14 00:36:00,79.0,0.0,29.92,NW,312,3.0,7.0,20,-99.99,,,-99.99,,2013-05-14 07:36:00,
2013-05-14 00:44:00,78.0,0.0,29.92,WNW,286,3.0,5.0,21,-99.99,,,-99.99,,2013-05-14 07:44:00,
2013-05-14 00:52:00,78.0,0.0,29.92,West,281,5.0,6.0,23,-99.99,,,-99.99,,2013-05-14 07:52:00,
2013-05-14 01:00:00,78.0,0.0,29.92,WNW,290,3.0,5.0,23,-99.99,,,-99.99,,2013-05-14 08:00:00,
2013-05-14 01:08:00,72.0,0.0,29.92,ENE,63,2.0,3.0,23,-99.99,,,-99.99,,2013-05-14 08:08:00,
2013-05-14 01:16:00,44.0,0.0,29.92,ESE,115,2.0,5.0,23,-99.99,,,-99.99,,2013-05-14 08:16:00,
2013-05-14 01:24:00,45.0,0.0,29.92,NE,46,0.0,2.0,25,-99.99,,,-99.99,,2013-05-14 08:24:00,
2013-05-14 01:32:00,45.0,0.0,29.92,ENE,67,7.0,7.0,22,-99.99,,,-99.99,,2013-05-14 08:32:00,
2013-05-14 01:40:00,69.0,0.0,29.92,East,101,2.0,8.0,27,-99.99,,,-99.99,,2013-05-14 08:40:00,
2013-05-14 01:48:00,70.0,0.0,29.91,ENE,78,2.0,5.0,25,-99.99,,,-99.99,,2013-05-14 08:48:00,
2013-05-14 01:56:00,71.0,0.0,29.91,SE,137,5.0,6.0,26,-99.99,,,-99.99,,2013-05-14 08:56:00,
2013-05-14 02:04:00,70.0,0.0,29.91,SSE,162,0.0,5.0,24,-99.99,,,-99.99,,2013-05-14 09:04:00,
2013-05-14 02:12:00,68.0,0.0,29.91,SW,222,1.0,2.0,25,-99.99,,,-99.99,,2013-05-14 09:12:00,
2013-05-14 02:20:00,66.0,0.0,29.91,ENE,60,7.0,7.0,27,-99.99,,,-99.99,,2013-05-14 09:20:00,
2013-05-14 02:28:00,64.0,0.0,29.91,ENE,72,5.0,7.0,29,-99.99,,,-99.99,,2013-05-14 09:28:00,
2013-05-14 02:36:00,64.0,0.0,29.91,East,96,3.0,6.0,29,-99.99,,,-99.99,,2013-05-14 09:36:00,
2013-05-14 02:44:00,39.0,0.0,29.91,East,85,1.0,3.0,31,-99.99,,,-99.99,,2013-05-14 09:44:00,
2013-05-14 02:52:00,39.0,0.0,29.90,SE,131,3.0,3.0,28,-99.99,,,-99.99,,2013-05-14 09:52:00,
2013-05-14 03:00:00,40.0,0.0,29.91,SSE,166,5.0,5.0,29,-99.99,,,-99.99,,2013-05-14 10:00:00,
2013-05-14 03:08:00,40.0,0.0,29.90,South,190,5.0,6.0,27,-99.99,,,-99.99,,2013-05-14 10:08:00,
2013-05-14 03:16:00,41.0,0.0,29.90,SSW,212,5.0,6.0,28,-99.99,,,-99.99,,2013-05-14 10:16:00,
2013-05-14 03:24:00,42.0,0.0,29.90,SSW,213,5.0,6.0,25,-99.99,,,-99.99,,2013-05-14 10:24:00,
2013-05-14 03:32:00,41.0,0.0,29.90,SSW,200,3.0,6.0,26,-99.99,,,-99.99,,2013-05-14 10:32:00,
2013-05-14 03:40:00,40.0,0.0,29.90,SSE,167,1.0,5.0,27,-99.99,,,-99.99,,2013-05-14 10:40:00,
2013-05-14 03:48:00,38.0,0.0,29.90,NE,42,1.0,3.0,29,-99.99,,,-99.99,,2013-05-14 10:48:00,
2013-05-14 03:56:00,38.0,0.0,29.90,ESE,120,0.0,2.0,30,-99.99,,,-99.99,,2013-05-14 10:56:00,
2013-05-14 04:04:00,37.0,0.0,29.90,East,84,5.0,5.0,31,-99.99,,,-99.99,,2013-05-14 11:04:00,
2013-05-14 04:12:00,36.0,0.0,29.90,SE,132,6.0,6.0,30,-99.99,,,-99.99,,2013-05-14 11:12:00,
2013-05-14 04:20:00,61.0,0.0,29.89,SE,130,6.0,7.0,33,-99.99,,,-99.99,,2013-05-14 11:20:00,
2013-05-14 04:28:00,65.0,0.0,29.89,SSE,149,6.0,7.0,31,-99.99,,,-99.99,,2013-05-14 11:28:00,
2013-05-14 04:36:00,65.0,0.0,29.89,SSE,150,7.0,7.0,31,-99.99,,,-99.99,,2013-05-14 11:36:00,
2013-05-14 04:44:00,66.0,0.0,29.89,SSE,162,6.0,7.0,29,-99.99,,,-99.99,,2013-05-14 11:44:00,
2013-05-14 04:52:00,68.0,0.0,29.89,SSE,157,5.0,7.0,28,-99.99,,,-99.99,,2013-05-14 11:52:00,
2013-05-14 05:04:00,64.0,0.0,29.89,WSW,239,0.0,6.0,32,-99.99,,,-99.99,,2013-05-14 12:04:00,
2013-05-14 05:12:00,62.0,0.0,29.89,WSW,257,1.0,5.0,32,-99.99,,,-99.99,,2013-05-14 12:12:00,
2013-05-14 05:20:00,58.0,0.0,29.89,WSW,239,3.0,6.0,36,-99.99,,,-99.99,,2013-05-14 12:20:00,
2013-05-14 05:28:00,58.0,0.0,29.90,WSW,248,5.0,5.0,34,-99.99,,,-99.99,,2013-05-14 12:28:00,
2013-05-14 05:36:00,54.0,0.0,29.90,WSW,237,0.0,5.0,33,-99.99,,,-99.99,,2013-05-14 12:36:00,
2013-05-14 05:44:00,52.0,0.0,29.90,SE,131,3.0,3.0,35,-99.99,,,-99.99,,2013-05-14 12:44:00,
2013-05-14 05:52:00,48.0,0.0,29.90,South,180,3.0,7.0,35,-99.99,,,-99.99,,2013-05-14 12:52:00,
2013-05-14 06:00:00,32.0,0.0,29.90,SSW,213,5.0,7.0,35,-99.99,,,-99.99,,2013-05-14 13:00:00,
2013-05-14 06:08:00,49.0,0.0,29.90,WSW,246,3.0,6.0,33,-99.99,,,-99.99,,2013-05-14 13:08:00,
2013-05-14 06:16:00,49.0,0.0,29.91,WSW,246,5.0,6.0,32,-99.99,,,-99.99,,2013-05-14 13:16:00,
2013-05-14 06:24:00,45.0,0.0,29.91,SE,135,3.0,6.0,29,-99.99,,,-99.99,,2013-05-14 13:24:00,
2013-05-14 06:32:00,52.0,0.0,29.91,SSE,159,3.0,6.0,31,-99.99,,,-99.99,,2013-05-14 13:32:00,
2013-05-14 06:40:00,51.0,0.0,29.92,SSE,158,0.0,5.0,31,-99.99,,,-99.99,,2013-05-14 13:40:00,
2013-05-14 06:48:00,62.0,0.0,29.92,SW,217,1.0,2.0,28,-99.99,,,-99.99,,2013-05-14 13:48:00,
2013-05-14 06:56:00,62.0,0.0,29.92,South,187,1.0,2.0,28,-99.99,,,-99.99,,2013-05-14 13:56:00,
2013-05-14 07:04:00,67.0,0.0,29.92,South,188,1.0,3.0,29,-99.99,,,-99.99,,2013-05-14 14:04:00,
2013-05-14 07:12:00,40.0,0.0,29.93,SE,138,2.0,3.0,27,-99.99,,,-99.99,,2013-05-14 14:12:00,
2013-05-14 07:20:00,42.0,0.0,29.93,SSE,155,2.0,2.0,27,-99.99,,,-99.99,,2013-05-14 14:20:00,
2013-05-14 07:28:00,44.0,0.0,29.93,SE,142,1.0,2.0,25,-99.99,,,-99.99,,2013-05-14 14:28:00,
2013-05-14 07:36:00,44.0,0.0,29.94,SSE,156,2.0,2.0,27,-99.99,,,-99.99,,2013-05-14 14:36:00,
2013-05-14 07:44:00,45.0,0.0,29.94,ESE,123,2.0,3.0,24,-99.99,,,-99.99,,2013-05-14 14:44:00,
2013-05-14 07:52:00,46.0,0.0,29.94,ENE,78,1.0,3.0,24,-99.99,,,-99.99,,2013-05-14 14:52:00,
2013-05-14 08:00:00,47.0,0.0,29.94,East,91,0.0,2.0,21,-99.99,,,-99.99,,2013-05-14 15:00:00,
2013-05-14 08:08:00,72.0,0.0,29.93,East,91,2.0,2.0,23,-99.99,,,-99.99,,2013-05-14 15:08:00,
2013-05-14 08:16:00,82.0,0.0,29.93,East,79,0.0,2.0,22,-99.99,,,-99.99,,2013-05-14 15:16:00,
2013-05-14 08:24:00,81.0,0.0,29.93,West,261,0.0,2.0,23,-99.99,,,-99.99,,2013-05-14 15:24:00,
2013-05-14 08:32:00,82.0,0.0,29.93,South,172,3.0,3.0,21,-99.99,,,-99.99,,2013-05-14 15:32:00,
2013-05-14 08:40:00,82.0,0.0,29.93,SSE,163,1.0,5.0,24,-99.99,,,-99.99,,2013-05-14 15:40:00,
2013-05-14 08:48:00,83.0,0.0,29.92,South,188,6.0,6.0,23,-99.99,,,-99.99,,2013-05-14 15:48:00,
2013-05-14 08:56:00,85.0,0.0,29.92,SSE,155,6.0,8.0,26,-99.99,,,-99.99,,2013-05-14 15:56:00,
2013-05-14 09:04:00,84.0,0.0,29.92,SW,214,7.0,9.0,24,-99.99,,,-99.99,,2013-05-14 16:04:00,
2013-05-14 09:12:00,84.0,0.0,29.92,SSW,204,5.0,10.0,22,-99.99,,,-99.99,,2013-05-14 16:12:00,
2013-05-14 09:20:00,86.0,0.0,29.92,SSW,203,8.0,12.0,22,-99.99,,,-99.99,,2013-05-14 16:20:00,
2013-05-14 09:28:00,87.0,0.0,29.91,South,178,8.0,12.0,21,-99.99,,,-99.99,,2013-05-14 16:28:00,
2013-05-14 09:36:00,88.0,0.0,29.91,SW,221,6.0,12.0,19,-99.99,,,-99.99,,2013-05-14 16:36:00,
2013-05-14 09:44:00,86.0,0.0,29.91,SE,139,8.0,10.0,20,-99.99,,,-99.99,,2013-05-14 16:44:00,
2013-05-14 09:52:00,89.0,0.0,29.90,South,169,9.0,17.0,13,-99.99,,,-99.99,,2013-05-14 16:52:00,
2013-05-14 10:00:00,89.0,0.0,29.90,SW,232,10.0,20.0,15,-99.99,,,-99.99,,2013-05-14 17:00:00,
2013-05-14 10:08:00,89.0,0.0,29.90,South,184,14.0,18.0,13,-99.99,,,-99.99,,2013-05-14 17:08:00,
2013-05-14 10:16:00,90.0,0.0,29.90,SSE,167,12.0,18.0,13,-99.99,,,-99.99,,2013-05-14 17:16:00,
2013-05-14 10:24:00,90.0,0.0,29.89,SSW,209,13.0,18.0,13,-99.99,,,-99.99,,2013-05-14 17:24:00,
2013-05-14 10:32:00,90.0,0.0,29.89,SSW,212,13.0,18.0,11,-99.99,,,-99.99,,2013-05-14 17:32:00,
2013-05-14 10:40:00,90.0,0.0,29.89,South,182,5.0,18.0,13,-99.99,,,-99.99,,2013-05-14 17:40:00,
2013-05-14 10:48:00,90.0,0.0,29.89,SSW,192,16.0,22.0,9,-99.99,,,-99.99,,2013-05-14 17:48:00,
2013-05-14 10:56:00,90.0,0.0,29.89,South,180,10.0,21.0,10,-99.99,,,-99.99,,2013-05-14 17:56:00,
2013-05-14 11:04:00,91.0,0.0,29.89,SSE,151,12.0,23.0,10,-99.99,,,-99.99,,2013-05-14 18:04:00,
2013-05-14 11:12:00,91.0,0.0,29.89,SSW,209,18.0,23.0,8,-99.99,,,-99.99,,2013-05-14 18:12:00,
2013-05-14 11:20:00,92.0,0.0,29.88,SSE,160,13.0,23.0,8,-99.99,,,-99.99,,2013-05-14 18:20:00,
2013-05-14 11:28:00,92.0,0.0,29.88,SSW,195,23.0,23.0,8,-99.99,,,-99.99,,2013-05-14 18:28:00,
2013-05-14 11:36:00,93.0,0.0,29.87,South,180,20.0,25.0,10,-99.99,,,-99.99,,2013-05-14 18:36:00,
2013-05-14 11:44:00,92.0,0.0,29.87,SSW,209,18.0,32.0,12,-99.99,,,-99.99,,2013-05-14 18:44:00,
2013-05-14 11:52:00,92.0,0.0,29.87,SSW,203,17.0,33.0,10,-99.99,,,-99.99,,2013-05-14 18:52:00,
2013-05-14 12:00:00,93.0,0.0,29.87,SW,219,12.0,33.0,7,-99.99,,,-99.99,,2013-05-14 19:00:00,
2013-05-14 12:08:00,94.0,0.0,29.86,SW,223,30.0,36.0,9,-99.99,,,-99.99,,2013-05-14 19:08:00,
2013-05-14 12:16:00,93.0,0.0,29.85,SSW,193,21.0,37.0,7,-99.99,,,-99.99,,2013-05-14 19:16:00,
2013-05-14 12:24:00,93.0,0.0,29.85,SSW,212,30.0,36.0,9,-99.99,,,-99.99,,2013-05-14 19:24:00,
2013-05-14 12:32:00,94.0,0.0,29.84,South,183,23.0,32.0,7,-99.99,,,-99.99,,2013-05-14 19:32:00,
2013-05-14 12:40:00,94.0,0.0,29.83,South,185,25.0,35.0,7,-99.99,,,-99.99,,2013-05-14 19:40:00,
2013-05-14 12:48:00,94.0,0.0,29.84,South,188,35.0,36.0,7,-99.99,,,-99.99,,2013-05-14 19:48:00,
2013-05-14 12:56:00,95.0,0.0,29.84,SSE,168,26.0,38.0,8,-99.99,,,-99.99,,2013-05-14 19:56:00,
2013-05-14 13:04:00,94.0,0.0,29.84,SSW,201,21.0,39.0,9,-99.99,,,-99.99,,2013-05-14 20:04:00,
2013-05-14 13:12:00,94.0,0.0,29.83,SSW,192,25.0,35.0,8,-99.99,,,-99.99,,2013-05-14 20:12:00,
2013-05-14 13:20:00,94.0,0.0,29.82,SSW,209,25.0,38.0,7,-99.99,,,-99.99,,2013-05-14 20:20:00,
2013-05-14 13:28:00,95.0,0.0,29.82,SSW,201,22.0,40.0,8,-99.99,,,-99.99,,2013-05-14 20:28:00,
2013-05-14 13:36:00,95.0,0.0,29.82,SSW,209,20.0,39.0,7,-99.99,,,-99.99,,2013-05-14 20:36:00,
2013-05-14 13:44:00,95.0,0.0,29.81,SSW,209,29.0,38.0,7,-99.99,,,-99.99,,2013-05-14 20:44:00,
2013-05-14 13:52:00,95.0,0.0,29.81,SSW,205,25.0,40.0,9,-99.99,,,-99.99,,2013-05-14 20:52:00,
2013-05-14 14:00:00,95.0,0.0,29.80,SW,231,24.0,35.0,8,-99.99,,,-99.99,,2013-05-14 21:00:00,
2013-05-14 14:08:00,95.0,0.0,29.81,SW,232,33.0,37.0,11,-99.99,,,-99.99,,2013-05-14 21:08:00,
2013-05-14 14:16:00,95.0,0.0,29.81,WSW,242,21.0,37.0,8,-99.99,,,-99.99,,2013-05-14 21:16:00,
2013-05-14 14:24:00,95.0,0.0,29.80,SW,226,23.0,32.0,12,-99.99,,,-99.99,,2013-05-14 21:24:00,
2013-05-14 14:32:00,94.0,0.0,29.80,WSW,239,25.0,36.0,11,-99.99,,,-99.99,,2013-05-14 21:32:00,
2013-05-14 14:40:00,94.0,0.0,29.79,WSW,240,28.0,38.0,12,-99.99,,,-99.99,,2013-05-14 21:40:00,
2013-05-14 14:48:00,94.0,0.0,29.80,WSW,238,25.0,32.0,14,-99.99,,,-99.99,,2013-05-14 21:48:00,
2013-05-14 14:56:00,94.0,0.0,29.80,SW,228,23.0,36.0,10,-99.99,,,-99.99,,2013-05-14 21:56:00,
2013-05-14 15:04:00,94.0,0.0,29.79,WSW,247,21.0,32.0,12,-99.99,,,-99.99,,2013-05-14 22:04:00,
2013-05-14 15:12:00,94.0,0.0,29.79,SW,231,21.0,32.0,10,-99.99,,,-99.99,,2013-05-14 22:12:00,
2013-05-14 15:20:00,94.0,0.0,29.78,West,270,23.0,39.0,12,-99.99,,,-99.99,,2013-05-14 22:20:00,
2013-05-14 15:28:00,93.0,0.0,29.78,West,272,18.0,39.0,14,-99.99,,,-99.99,,2013-05-14 22:28:00,
2013-05-14 15:36:00,92.0,0.0,29.78,NW,308,16.0,32.0,14,-99.99,,,-99.99,,2013-05-14 22:36:00,
2013-05-14 15:44:00,92.0,0.0,29.78,WNW,303,24.0,37.0,16,-99.99,,,-99.99,,2013-05-14 22:44:00,
2013-05-14 15:52:00,91.0,0.0,29.79,WNW,285,23.0,32.0,18,-99.99,,,-99.99,,2013-05-14 22:52:00,
2013-05-14 16:00:00,90.0,0.0,29.79,WNW,283,23.0,31.0,17,-99.99,,,-99.99,,2013-05-14 23:00:00,
2013-05-14 16:08:00,90.0,0.0,29.79,WNW,296,17.0,31.0,18,-99.99,,,-99.99,,2013-05-14 23:08:00,
2013-05-14 16:16:00,89.0,0.0,29.79,West,266,22.0,33.0,15,-99.99,,,-99.99,,2013-05-14 23:16:00,
2013-05-14 16:24:00,89.0,0.0,29.79,West,281,16.0,31.0,15,-99.99,,,-99.99,,2013-05-14 23:24:00,
2013-05-14 16:32:00,89.0,0.0,29.79,WNW,288,26.0,33.0,11,-99.99,,,-99.99,,2013-05-14 23:32:00,
2013-05-14 16:40:00,89.0,0.0,29.79,WNW,300,18.0,31.0,14,-99.99,,,-99.99,,2013-05-14 23:40:00,
2013-05-14 16:48:00,88.0,0.0,29.79,WNW,289,15.0,36.0,11,-99.99,,,-99.99,,2013-05-14 23:48:00,
2013-05-14 16:56:00,88.0,0.0,29.79,West,273,25.0,33.0,13,-99.99,,,-99.99,,2013-05-14 23:56:00,
2013-05-14 17:04:00,88.0,0.0,29.80,West,262,18.0,35.0,11,-99.99,,,-99.99,,2013-05-15 00:04:00,
2013-05-14 17:12:00,88.0,0.0,29.79,West,270,20.0,32.0,11,-99.99,,,-99.99,,2013-05-15 00:12:00,
2013-05-14 17:20:00,86.0,0.0,29.79,WSW,255,25.0,35.0,12,-99.99,,,-99.99,,2013-05-15 00:20:00,
2013-05-14 17:28:00,86.0,0.0,29.78,WSW,253,20.0,33.0,13,-99.99,,,-99.99,,2013-05-15 00:28:00,
2013-05-14 17:36:00,85.0,0.0,29.79,West,274,25.0,32.0,12,-99.99,,,-99.99,,2013-05-15 00:36:00,
2013-05-14 17:44:00,86.0,0.0,29.78,WSW,240,20.0,32.0,12,-99.99,,,-99.99,,2013-05-15 00:44:00,
2013-05-14 17:52:00,85.0,0.0,29.78,SW,236,13.0,31.0,12,-99.99,,,-99.99,,2013-05-15 00:52:00,
2013-05-14 18:00:00,85.0,0.0,29.78,WSW,257,16.0,29.0,12,-99.99,,,-99.99,,2013-05-15 01:00:00,
2013-05-14 18:08:00,85.0,0.0,29.78,SW,230,17.0,29.0,14,-99.99,,,-99.99,,2013-05-15 01:08:00,
2013-05-14 18:16:00,84.0,0.0,29.79,SW,219,21.0,30.0,14,-99.99,,,-99.99,,2013-05-15 01:16:00,
2013-05-14 18:24:00,84.0,0.0,29.78,West,277,16.0,28.0,15,-99.99,,,-99.99,,2013-05-15 01:24:00,
2013-05-14 18:32:00,84.0,0.0,29.79,WSW,249,16.0,28.0,14,-99.99,,,-99.99,,2013-05-15 01:32:00,
2013-05-14 18:40:00,84.0,0.0,29.79,West,274,13.0,25.0,12,-99.99,,,-99.99,,2013-05-15 01:40:00,
2013-05-14 18:48:00,84.0,0.0,29.79,West,277,15.0,23.0,12,-99.99,,,-99.99,,2013-05-15 01:48:00,
2013-05-14 18:56:00,84.0,0.0,29.78,WNW,291,14.0,21.0,12,-99.99,,,-99.99,,2013-05-15 01:56:00,
2013-05-14 19:04:00,84.0,0.0,29.78,West,260,12.0,20.0,12,-99.99,,,-99.99,,2013-05-15 02:04:00,
2013-05-14 19:12:00,83.0,0.0,29.78,West,266,16.0,22.0,14,-99.99,,,-99.99,,2013-05-15 02:12:00,
2013-05-14 19:20:00,82.0,0.0,29.78,West,276,18.0,29.0,13,-99.99,,,-99.99,,2013-05-15 02:20:00,
2013-05-14 19:28:00,82.0,0.0,29.78,West,279,15.0,21.0,15,-99.99,,,-99.99,,2013-05-15 02:28:00,
2013-05-14 19:36:00,82.0,0.0,29.78,West,267,17.0,22.0,16,-99.99,,,-99.99,,2013-05-15 02:36:00,
2013-05-14 19:44:00,48.0,0.0,29.79,WSW,241,14.0,25.0,14,-99.99,,,-99.99,,2013-05-15 02:44:00,
2013-05-14 19:52:00,47.0,0.0,29.79,West,276,21.0,24.0,17,-99.99,,,-99.99,,2013-05-15 02:52:00,
2013-05-14 20:00:00,47.0,0.0,29.79,West,265,12.0,26.0,18,-99.99,,,-99.99,,2013-05-15 03:00:00,
2013-05-14 20:08:00,79.0,0.0,29.79,West,276,17.0,23.0,20,-99.99,,,-99.99,,2013-05-15 03:08:00,
2013-05-14 20:16:00,79.0,0.0,29.79,WNW,295,14.0,23.0,17,-99.99,,,-99.99,,2013-05-15 03:16:00,
2013-05-14 20:24:00,79.0,0.0,29.79,WNW,292,12.0,23.0,19,-99.99,,,-99.99,,2013-05-15 03:24:00,
2013-05-14 20:32:00,79.0,0.0,29.79,NW,307,20.0,29.0,20,-99.99,,,-99.99,,2013-05-15 03:32:00,
2013-05-14 20:40:00,79.0,0.0,29.79,WNW,301,18.0,29.0,22,-99.99,,,-99.99,,2013-05-15 03:40:00,
2013-05-14 20:48:00,78.0,0.0,29.79,WNW,298,18.0,29.0,21,-99.99,,,-99.99,,2013-05-15 03:48:00,
2013-05-14 20:56:00,78.0,0.0,29.79,WNW,301,20.0,28.0,24,-99.99,,,-99.99,,2013-05-15 03:56:00,
2013-05-14 21:04:00,78.0,0.0,29.80,NW,307,18.0,28.0,22,-99.99,,,-99.99,,2013-05-15 04:04:00,
2013-05-14 21:08:00,78.0,0.0,29.80,NW,304,25.0,28.0,24,-99.99,,,-99.99,,2013-05-15 04:08:00,
2013-05-14 21:12:00,78.0,0.0,29.80,WNW,300,16.0,25.0,24,-99.99,,,-99.99,,2013-05-15 04:12:00,
2013-05-14 21:16:00,78.0,0.0,29.80,WNW,288,18.0,25.0,22,-99.99,,,-99.99,,2013-05-15 04:16:00,
2013-05-14 21:24:00,78.0,0.0,29.81,WNW,296,17.0,23.0,23,-99.99,,,-99.99,,2013-05-15 04:24:00,
2013-05-14 21:32:00,78.0,0.0,29.81,WNW,295,14.0,23.0,27,-99.99,,,-99.99,,2013-05-15 04:32:00,
2013-05-14 21:40:00,78.0,0.0,29.81,WNW,301,14.0,22.0,23,-99.99,,,-99.99,,2013-05-15 04:40:00,
2013-05-14 21:48:00,77.0,0.0,29.82,WNW,290,14.0,18.0,23,-99.99,,,-99.99,,2013-05-15 04:48:00,
2013-05-14 21:56:00,77.0,0.0,29.82,WNW,293,15.0,21.0,23,-99.99,,,-99.99,,2013-05-15 04:56:00,
2013-05-14 22:04:00,77.0,0.0,29.83,WNW,283,18.0,22.0,23,-99.99,,,-99.99,,2013-05-15 05:04:00,
2013-05-14 22:12:00,77.0,0.0,29.83,WNW,295,16.0,23.0,23,-99.99,,,-99.99,,2013-05-15 05:12:00,
2013-05-14 22:20:00,77.0,0.0,29.83,WNW,298,14.0,24.0,23,-99.99,,,-99.99,,2013-05-15 05:20:00,
2013-05-14 22:28:00,77.0,0.0,29.83,WNW,287,14.0,18.0,27,-99.99,,,-99.99,,2013-05-15 05:28:00,
2013-05-14 22:36:00,76.0,0.0,29.83,WNW,293,15.0,18.0,23,-99.99,,,-99.99,,2013-05-15 05:36:00,
2013-05-14 22:44:00,76.0,0.0,29.84,WNW,293,10.0,16.0,24,-99.99,,,-99.99,,2013-05-15 05:44:00,
2013-05-14 22:52:00,76.0,0.0,29.84,WNW,298,12.0,15.0,23,-99.99,,,-99.99,,2013-05-15 05:52:00,
2013-05-14 23:00:00,76.0,0.0,29.83,WNW,293,12.0,15.0,24,-99.99,,,-99.99,,2013-05-15 06:00:00,
2013-05-14 23:08:00,76.0,0.0,29.84,West,277,10.0,14.0,23,-99.99,,,-99.99,,2013-05-15 06:08:00,
2013-05-14 23:16:00,76.0,0.0,29.84,West,275,10.0,15.0,24,-99.99,,,-99.99,,2013-05-15 06:16:00,
2013-05-14 23:24:00,76.0,0.0,29.84,WNW,286,10.0,16.0,22,-99.99,,,-99.99,,2013-05-15 06:24:00,
2013-05-14 23:32:00,76.0,0.0,29.84,WNW,286,12.0,16.0,23,-99.99,,,-99.99,,2013-05-15 06:32:00,
2013-05-14 23:40:00,76.0,0.0,29.84,WNW,290,12.0,16.0,25,-99.99,,,-99.99,,2013-05-15 06:40:00,
2013-05-14 23:48:00,76.0,0.0,29.84,WNW,295,13.0,17.0,23,-99.99,,,-99.99,,2013-05-15 06:48:00,
2013-05-14 23:56:00,76.0,0.0,29.84,NW,305,12.0,18.0,25,-99.99,,,-99.99,,2013-05-15 06:56:00,